GW1213 Weather Reports


Display with metric or nautical units.
time (UTC)temp
F
wind
direction
speed
MPH
gust
MPH
rain 1hr
in
rain 24hr
in
rain mn
in
humidity
%
barometer
mb
20260505060056 64 0 0.0 0.0 0.00 0.00 0.00 56 1010.8
20260505055539 64 0 0.0 4.0 0.00 0.00 0.00 55 1010.8
20260505055036 64 0 0.0 4.0 0.00 0.00 0.00 55 1010.7
20260505054556 64 0 0.0 4.0 0.00 0.00 0.00 55 1010.7
20260505054041 64 0 0.0 4.0 0.00 0.00 0.00 54 1010.6
20260505053535 64 132 0.0 4.0 0.00 0.00 0.00 54 1010.6
20260505053057 64 236 0.0 4.0 0.00 0.00 0.00 54 1010.6
20260505052538 64 0 1.0 4.0 0.00 0.00 0.00 54 1010.7
20260505052038 64 0 0.0 6.0 0.00 0.00 0.00 54 1010.6
20260505051546 64 0 1.0 6.0 0.00 0.00 0.00 54 1010.6
20260505051036 65 0 0.0 5.0 0.00 0.00 0.00 53 1010.6
20260505050538 65 0 0.0 3.0 0.00 0.00 0.00 53 1010.6
20260505041552 67 192 0.0 4.0 0.00 0.00 0.00 51 1010.4
20260505041036 67 194 0.0 5.0 0.00 0.00 0.00 51 1010.4
20260505040541 67 0 1.0 5.0 0.00 0.00 0.00 50 1010.4
20260505040051 67 191 0.0 5.0 0.00 0.00 0.00 50 1010.4
20260505035537 67 0 0.0 5.0 0.00 0.00 0.00 50 1010.4
20260505035039 67 147 0.0 4.0 0.00 0.00 0.00 50 1010.5
20260505034549 67 0 0.0 3.0 0.00 0.00 0.00 50 1010.5
20260505034038 67 0 0.0 3.0 0.00 0.00 0.00 50 1010.5
20260505033538 67 0 0.0 3.0 0.00 0.00 0.00 50 1010.5
20260505033052 67 229 0.0 3.0 0.00 0.00 0.00 50 1010.5
20260505032536 67 0 0.0 4.0 0.00 0.00 0.00 50 1010.5
20260505032036 67 0 0.0 5.0 0.00 0.00 0.00 51 1010.6
20260505031548 67 159 1.0 5.0 0.00 0.00 0.00 52 1010.7
20260505031038 66 0 0.0 4.0 0.00 0.00 0.00 52 1010.6
20260505030539 66 0 1.0 4.0 0.00 0.00 0.00 53 1010.6
20260505030104 65 0 0.0 3.0 0.00 0.00 0.00 56 1010.6
20260505025542 65 0 0.0 3.0 0.00 0.00 0.00 55 1010.7
20260505025038 65 0 0.0 1.0 0.00 0.00 0.00 57 1010.7
20260505024551 65 0 0.0 1.0 0.00 0.00 0.00 56 1010.6
20260505024038 65 0 0.0 0.0 0.00 0.00 0.00 56 1010.7
20260505023538 65 0 0.0 0.0 0.00 0.00 0.00 56 1010.6
20260505023102 66 0 0.0 0.0 0.00 0.00 0.00 56 1010.6
20260505022538 66 0 0.0 0.0 0.00 0.00 0.00 58 1010.6
20260505022041 66 0 0.0 0.0 0.00 0.00 0.00 59 1010.6
20260505021557 67 0 0.0 0.0 0.00 0.00 0.00 55 1010.6
20260505021036 67 0 0.0 0.0 0.00 0.00 0.00 56 1010.6
20260505020540 67 0 0.0 0.0 0.00 0.00 0.00 51 1010.6
20260505020056 68 0 0.0 0.0 0.00 0.00 0.00 50 1010.5
20260505015536 68 0 0.0 0.0 0.00 0.00 0.00 50 1010.5
20260505015036 69 0 0.0 0.0 0.00 0.00 0.00 51 1010.6
20260505014553 69 0 0.0 1.0 0.00 0.00 0.00 47 1010.5
20260505014035 70 0 0.0 1.0 0.00 0.00 0.00 45 1010.3
20260505013537 70 0 0.0 0.0 0.00 0.00 0.00 44 1010.4
20260505013051 71 0 0.0 0.0 0.00 0.00 0.00 43 1010.4
20260505012538 71 0 0.0 1.0 0.00 0.00 0.00 42 1010.3
20260505012041 71 0 0.0 2.0 0.00 0.00 0.00 41 1010.2
20260505011555 72 0 0.0 5.0 0.00 0.00 0.00 41 1010.3
20260505011041 72 0 0.0 5.0 0.00 0.00 0.00 40 1010.3
20260505010536 72 0 0.0 3.0 0.00 0.00 0.00 40 1010.2
20260505005536 72 0 0.0 0.0 0.00 0.00 0.00 39 1010.1
20260505005036 73 0 0.0 1.0 0.00 0.00 0.00 38 1010.0
20260505004552 73 0 0.0 4.0 0.00 0.00 0.00 38 1009.9
20260505004036 73 0 0.0 5.0 0.00 0.00 0.00 38 1009.8
20260505003539 73 163 0.0 5.0 0.00 0.00 0.00 38 1009.7
20260505003046 73 182 1.0 5.0 0.00 0.00 0.00 37 1009.6
20260505002534 74 207 0.0 4.0 0.00 0.00 0.00 37 1009.8
20260505002034 74 252 1.0 5.0 0.00 0.00 0.00 36 1009.8
20260505001550 74 258 1.0 5.0 0.00 0.00 0.00 36 1009.7
20260505001037 74 0 1.0 7.0 0.00 0.00 0.00 36 1009.7
20260505000538 74 225 1.0 7.0 0.00 0.00 0.00 36 1009.8
20260505000053 74 188 1.0 8.0 0.00 0.00 0.00 36 1009.8
20260504235535 74 180 2.0 8.0 0.00 0.00 0.00 36 1009.8
20260504235036 74 239 0.0 8.0 0.00 0.00 0.00 36 1009.7
20260504234544 75 173 2.0 10.0 0.00 0.00 0.00 36 1009.7
20260504234036 75 175 2.0 10.0 0.00 0.00 0.00 36 1009.6
20260504233540 75 177 3.0 10.0 0.00 0.00 0.00 36 1009.6
20260504233054 75 192 2.0 6.0 0.00 0.00 0.00 35 1009.5
20260504232537 75 259 2.0 5.0 0.00 0.00 0.00 35 1009.4
20260504232035 75 196 1.0 5.0 0.00 0.00 0.00 35 1009.5
20260504231548 76 0 2.0 5.0 0.00 0.00 0.00 35 1009.3
20260504231035 76 0 0.0 6.0 0.00 0.00 0.00 35 1009.3
20260504230535 76 173 1.0 7.0 0.00 0.00 0.00 35 1009.3
20260504230048 76 135 0.0 7.0 0.00 0.00 0.00 34 1009.3
20260504225535 76 277 2.0 8.0 0.00 0.00 0.00 34 1009.4
20260504225038 76 195 2.0 8.0 0.00 0.00 0.00 34 1009.3
20260504224548 77 200 3.0 10.0 0.00 0.00 0.00 34 1009.3
20260504224036 77 194 3.0 10.0 0.00 0.00 0.00 34 1009.4
20260504223535 77 220 2.0 8.0 0.00 0.00 0.00 34 1009.3
20260504223051 77 0 2.0 8.0 0.00 0.00 0.00 34 1009.3
20260504222536 77 192 4.0 9.0 0.00 0.00 0.00 34 1009.3
20260504222036 77 193 2.0 10.0 0.00 0.00 0.00 34 1009.4
20260504221548 77 188 3.0 12.0 0.00 0.00 0.00 33 1009.5
20260504221035 77 0 3.0 13.0 0.00 0.00 0.00 33 1009.4
20260504220536 77 222 3.0 13.0 0.00 0.00 0.00 33 1009.4
20260504220108 77 231 3.0 8.0 0.00 0.00 0.00 33 1009.4
20260504215536 77 200 1.0 8.0 0.00 0.00 0.00 34 1009.5
20260504215036 77 208 3.0 9.0 0.00 0.00 0.00 33 1009.5
20260504214552 77 259 3.0 9.0 0.00 0.00 0.00 33 1009.5
20260504214035 77 263 3.0 9.0 0.00 0.00 0.00 33 1009.5
20260504213535 77 246 3.0 9.0 0.00 0.00 0.00 33 1009.4
20260504213053 77 208 2.0 11.0 0.00 0.00 0.00 34 1009.4
20260504212535 77 239 4.0 11.0 0.00 0.00 0.00 33 1009.5
20260504212034 77 207 4.0 11.0 0.00 0.00 0.00 32 1009.5
20260504211554 77 116 4.0 10.0 0.00 0.00 0.00 32 1009.5
20260504211035 78 242 3.0 10.0 0.00 0.00 0.00 31 1009.5
20260504210536 78 169 3.0 9.0 0.00 0.00 0.00 33 1009.5
20260504210051 78 246 1.0 8.0 0.00 0.00 0.00 33 1009.4
20260504205536 77 223 2.0 10.0 0.00 0.00 0.00 31 1009.5
20260504205035 77 250 4.0 10.0 0.00 0.00 0.00 31 1009.6
20260504204547 78 193 3.0 13.0 0.00 0.00 0.00 31 1009.6
20260504204035 78 267 3.0 13.0 0.00 0.00 0.00 32 1009.6
20260504203535 78 159 4.0 12.0 0.00 0.00 0.00 31 1009.5
20260504203045 78 232 2.0 11.0 0.00 0.00 0.00 31 1009.7
20260504202535 78 182 3.0 10.0 0.00 0.00 0.00 32 1009.7
20260504202035 78 290 2.0 11.0 0.00 0.00 0.00 31 1010.0
20260504201551 78 175 3.0 11.0 0.00 0.00 0.00 31 1009.9
20260504201038 77 268 3.0 11.0 0.00 0.00 0.00 31 1009.9
20260504200537 77 176 3.0 11.0 0.00 0.00 0.00 31 1010.0
20260504200055 77 184 4.0 10.0 0.00 0.00 0.00 32 1010.0
20260504195535 76 239 3.0 9.0 0.00 0.00 0.00 33 1010.1
20260504195036 76 129 2.0 10.0 0.00 0.00 0.00 32 1010.1
20260504194549 77 289 4.0 11.0 0.00 0.00 0.00 32 1010.2
20260504194038 78 252 4.0 11.0 0.00 0.00 0.00 30 1010.1
20260504193536 79 255 2.0 11.0 0.00 0.00 0.00 30 1010.2
20260504193047 79 217 3.0 10.0 0.00 0.00 0.00 30 1010.2
20260504192534 79 153 4.0 9.0 0.00 0.00 0.00 30 1010.2
20260504192035 78 291 2.0 10.0 0.00 0.00 0.00 33 1010.3
20260504191557 78 205 2.0 11.0 0.00 0.00 0.00 30 1010.3
20260504191035 78 163 4.0 11.0 0.00 0.00 0.00 29 1010.5
20260504190534 78 88 2.0 9.0 0.00 0.00 0.00 30 1010.6
20260504185535 77 0 2.0 8.0 0.00 0.00 0.00 33 1010.6
20260504185034 77 238 2.0 10.0 0.00 0.00 0.00 30 1010.8
20260504184604 77 213 4.0 10.0 0.00 0.00 0.00 32 1010.7
20260504184037 77 70 4.0 9.0 0.00 0.00 0.00 31 1010.8
20260504183536 77 273 3.0 11.0 0.00 0.00 0.00 31 1010.9
20260504183051 77 269 3.0 11.0 0.00 0.00 0.00 30 1011.0
20260504182533 77 142 2.0 7.0 0.00 0.00 0.00 30 1011.0
20260504182035 77 132 1.0 12.0 0.00 0.00 0.00 30 1011.1
20260504181549 76 236 5.0 12.0 0.00 0.00 0.00 30 1011.3
20260504181033 77 157 2.0 9.0 0.00 0.00 0.00 30 1011.4
20260504180535 77 215 3.0 12.0 0.00 0.00 0.00 30 1011.3
20260504180049 77 259 3.0 12.0 0.00 0.00 0.00 30 1011.4
20260504175535 76 208 2.0 12.0 0.00 0.00 0.00 30 1011.5
20260504175035 76 244 3.0 12.0 0.00 0.00 0.00 30 1011.5
20260504174547 76 252 4.0 9.0 0.00 0.00 0.00 30 1011.6
20260504174034 76 240 2.0 9.0 0.00 0.00 0.00 30 1011.5
20260504173533 76 151 2.0 9.0 0.00 0.00 0.00 30 1011.6
20260504173052 76 110 3.0 8.0 0.00 0.00 0.00 30 1011.7
20260504172535 75 259 2.0 9.0 0.00 0.00 0.00 30 1011.8
20260504172033 75 106 2.0 9.0 0.00 0.00 0.00 31 1011.9
20260504171548 75 116 2.0 10.0 0.00 0.00 0.00 33 1012.0
20260504171036 75 166 1.0 10.0 0.00 0.00 0.00 31 1012.0
20260504170536 75 194 3.0 8.0 0.00 0.00 0.00 31 1012.2
20260504151035 71 250 2.0 9.0 0.00 0.00 0.00 36 1013.6
20260504150540 70 281 3.0 9.0 0.00 0.00 0.00 34 1013.6
20260504141038 67 74 0.0 5.0 0.00 0.00 0.00 47 1013.9
20260504140538 66 270 1.0 5.0 0.00 0.00 0.00 43 1014.0
20260504130539 59 183 1.0 6.0 0.00 0.00 0.00 50 1014.6
20260504110535 47 0 0.0 0.0 0.00 0.00 0.00 80 1015.1
20260504100535 48 0 0.0 0.0 0.00 0.00 0.00 74 1015.0
20260504081555 48 0 0.0 0.0 0.00 0.00 0.00 70 1015.3
20260504081034 49 0 0.0 0.0 0.00 0.00 0.00 72 1015.3
20260504080535 49 0 0.0 0.0 0.00 0.00 0.00 72 1015.3